Lid_Strength_Index
8 5 3 3 3 2 2 1 2 2 3 2 2 2 2 3 3 2 2 1 1 1 0 0 0 0 1 2 3 5 6 8 9 9 10 10 10 10 12 12 12 12 10
8 6 3 3 3 3 2 2 2 2 2 2 2 2 2 2 2 3 2 2 2 1 1 0 0 0 1 1 3 4 7 8 8 10 10 12 10 10 10 12 12 12 12
10 9 6 3 3 4 2 2 2 2 2 2 2 3 3 3 3 3 3 3 2 1 1 1 0 0 0 1 2 3 5 8 8 9 9 12 12 12 11 11 12 13 13
7 9 10 7 3 3 2 2 2 2 2 2 2 3 3 3 2 2 3 3 2 2 1 1 1 1 0 1 1 2 4 7 8 9 8 8 9 11 12 12 11 12 12
8 8 7 7 7 4 3 2 2 2 1 1 2 2 3 2 2 2 2 3 2 2 2 0 1 1 1 1 1 2 4 5 6 7 9 9 9 9 11 12 13 12 12
9 8 7 7 6 5 4 2 2 2 2 1 1 2 2 3 3 3 3 3 3 2 2 1 1 1 1 1 1 1 2 4 4 6 7 8 8 9 10 11 12 13 12
9 9 8 9 8 7 7 5 2 2 1 2 2 2 2 2 2 3 2 2 3 3 3 2 1 1 1 2 1 1 2 3 5 5 5 6 7 8 7 9 11 12 12
10 9 8 8 8 8 7 6 5 5 2 2 1 1 1 1 1 2 2 2 2 2 2 2 2 2 1 1 2 2 2 2 3 4 5 5 6 6 7 8 9 12 12
11 10 9 8 8 8 8 7 6 5 3 2 1 1 1 1 1 1 1 1 1 1 2 2 2 2 2 2 2 2 2 2 3 3 3 5 4 5 6 6 7 8 9
12 11 10 10 9 9 8 7 6 5 2 1 1 1 1 1 1 1 1 1 2 1 2 2 2 2 2 2 2 2 1 2 2 3 3 3 3 3 5 6 6 6 6
13 12 12 11 10 9 8 7 6 5 4 2 2 1 1 1 1 1 1 1 1 1 1 2 2 2 2 2 2 2 1 2 2 3 4 4 4 5 4 5 5 5 5
12 12 12 12 12 11 9 9 7 6 7 4 3 3 3 2 1 1 1 1 1 1 2 2 2 2 2 2 2 2 2 2 3 3 4 4 4 5 5 5 6 5 5
13 13 13 13 13 12 10 9 9 9 7 8 7 7 7 6 6 6 6 5 3 1 1 2 2 2 2 2 2 2 2 2 2 3 3 4 5 5 5 5 6 7 6
14 14 14 14 13 12 11 10 10 11 10 9 10 10 10 9 8 8 8 8 8 7 7 7 6 5 3 3 3 2 2 2 2 3 3 3 4 4 5 5 6 6 7
15 15 14 14 14 13 12 11 11 11 11 12 12 12 11 11 10 10 9 9 10 9 9 9 9 8 9 11 11 10 9 7 4 3 3 3 4 7 5 4 5 6 7
15 14 14 14 14 14 13 12 12 12 11 13 13 12 12 12 12 12 11 11 11 11 11 12 11 11 10 12 12 12 11 10 10 10 9 9 12 10 11 10 9 6 6
14 14 14 14 14 14 13 13 13 12 12 12 13 14 13 14 13 13 13 13 13 12 13 12 12 12 12 12 12 13 12 12 12 12 13 13 13 13 12 11 11 11 11
14 14 14 15 15 14 15 14 13 13 14 14 14 14 14 14 14 14 14 13 13 13 14 13 13 13 13 12 12 12 13 13 13 13 13 14 13 13 14 14 14 13 13
13 13 14 14 16 16 16 15 15 15 16 16 16 15 15 15 15 15 15 14 14 14 14 15 15 15 14 13 12 12 14 14 14 14 14 14 14 14 13 14 15 15 14
14 14 14 15 16 16 16 16 17 17 18 17 16 16 15 15 15 15 15 15 15 15 16 16 15 15 15 14 13 13 14 14 14 14 14 14 13 13 13 14 15 15 15
14 15 15 16 16 16 15 15 16 17 17 16 16 16 16 15 14 13 13 13 14 14 15 15 14 14 13 13 11 10 11 12 11 12 12 12 11 11 10 10 13 14 14
14 15 16 16 17 16 16 16 16 16 16 15 15 15 15 14 13 13 13 13 13 14 14 14 15 14 13 13 12 11 10 10 12 12 12 12 11 11 11 11 11 11 13
15 15 17 18 18 18 18 17 18 18 17 17 17 15 15 14 13 13 13 14 14 15 15 15 16 15 14 13 12 11 10 10 11 11 11 10 10 10 11 10 9 12 13
18 19 16 20 21 21 20 21 20 20 19 18 18 16 14 14 14 13 13 14 15 15 15 16 16 15 15 14 13 11 11 11 10 11 11 11 11 11 11 12 12 12 13
20 17 16 23 23 25 25 25 22 22 20 20 18 15 14 14 14 14 13 13 13 14 15 15 15 16 16 14 13 12 13 12 11 11 12 13 14 15 14 13 13 13 13
22 20 17 24 24 26 26 26 26 25 24 20 16 15 14 14 14 15 18 14 13 13 13 13 14 15 14 13 13 13 13 13 12 16 16 15 13 13 14 16 16 14 14